Time,TemperatureF,DewpointF,PressureIn,WindDirection,WindDirectionDegrees,WindSpeedMPH,WindSpeedGustMPH,Humidity,HourlyPrecipIn,Conditions,Clouds,dailyrainin,SoftwareType,DateUTC
2013-09-06 00:00:00,57.2,55.8,30.13,South,180,0.0,0.0,95,0.00,,---,0.00,VWS V14.01,2013-09-06 04:00:00,
2013-09-06 00:30:00,56.8,55.4,30.12,South,180,0.0,0.0,95,0.00,,---,0.00,VWS V14.01,2013-09-06 04:30:00,
2013-09-06 01:00:00,55.9,54.5,30.13,South,180,0.0,0.0,95,0.00,,---,0.00,VWS V14.01,2013-09-06 05:00:00,
2013-09-06 01:30:00,55.4,54.0,30.12,South,180,0.0,0.0,95,0.00,,---,0.00,VWS V14.01,2013-09-06 05:30:00,
2013-09-06 02:00:00,54.3,51.4,30.12,South,180,0.0,0.0,90,0.00,,---,0.00,VWS V14.01,2013-09-06 06:00:00,
2013-09-06 02:30:00,53.8,49.1,30.12,South,180,0.0,0.0,84,0.00,,---,0.00,VWS V14.01,2013-09-06 06:30:00,
2013-09-06 03:00:00,52.9,47.9,30.12,South,180,0.0,0.0,83,0.00,,---,0.00,VWS V14.01,2013-09-06 07:00:00,
2013-09-06 03:30:00,52.2,47.8,30.13,South,180,0.0,0.0,85,0.00,,---,0.00,VWS V14.01,2013-09-06 07:30:00,
2013-09-06 04:00:00,52.3,49.5,30.12,South,180,0.0,0.0,90,0.00,,---,0.00,VWS V14.01,2013-09-06 08:00:00,
2013-09-06 04:30:00,53.0,50.7,30.12,South,180,0.0,0.0,92,0.00,,---,0.00,VWS V14.01,2013-09-06 08:30:00,
2013-09-06 05:00:00,54.1,52.1,30.12,South,180,0.0,0.0,93,0.00,,---,0.00,VWS V14.01,2013-09-06 09:00:00,
2013-09-06 05:30:00,54.2,50.4,30.13,South,180,0.0,0.0,87,0.00,,---,0.00,VWS V14.01,2013-09-06 09:30:00,
2013-09-06 06:00:00,52.8,49.3,30.14,South,180,0.0,0.0,88,0.00,,---,0.00,VWS V14.01,2013-09-06 10:00:00,
2013-09-06 06:30:00,52.0,49.8,30.17,South,180,0.0,0.0,92,0.00,,---,0.00,VWS V14.01,2013-09-06 10:30:00,
2013-09-06 07:00:00,52.5,50.5,30.16,South,180,0.0,0.0,93,0.00,,---,0.00,VWS V14.01,2013-09-06 11:00:00,
2013-09-06 07:30:00,53.8,52.4,30.18,South,180,0.0,0.0,95,0.00,,---,0.00,VWS V14.01,2013-09-06 11:30:00,
2013-09-06 08:00:00,54.5,53.1,30.19,South,180,0.0,0.0,95,0.00,,---,0.00,VWS V14.01,2013-09-06 12:00:00,
2013-09-06 08:30:00,56.5,54.2,30.18,South,180,0.0,0.0,92,0.00,,---,0.00,VWS V14.01,2013-09-06 12:30:00,
2013-09-06 09:00:00,60.3,54.1,30.17,South,180,0.0,4.0,80,0.00,,---,0.00,VWS V14.01,2013-09-06 13:00:00,
2013-09-06 09:30:00,64.0,55.6,30.17,South,180,1.0,7.0,74,0.00,,---,0.00,VWS V14.01,2013-09-06 13:30:00,
2013-09-06 10:00:00,65.5,56.6,30.17,South,180,1.0,9.0,73,0.00,,---,0.00,VWS V14.01,2013-09-06 14:00:00,
2013-09-06 10:30:00,66.0,57.5,30.17,SSW,202,1.0,9.0,74,0.00,,---,0.00,VWS V14.01,2013-09-06 14:30:00,
2013-09-06 11:00:00,67.7,57.6,30.17,SSW,202,1.0,6.0,70,0.00,,---,0.00,VWS V14.01,2013-09-06 15:00:00,
2013-09-06 11:30:00,68.3,57.8,30.18,SSE,158,0.0,6.0,69,0.00,,---,0.00,VWS V14.01,2013-09-06 15:30:00,
2013-09-06 12:00:00,68.7,56.9,30.17,SSW,202,1.0,6.0,66,0.00,,---,0.00,VWS V14.01,2013-09-06 16:00:00,
2013-09-06 12:30:00,69.6,60.2,30.16,South,180,1.0,6.0,72,0.00,,---,0.00,VWS V14.01,2013-09-06 16:30:00,
2013-09-06 13:00:00,69.7,59.5,30.16,SSW,202,0.0,6.0,70,0.00,,---,0.00,VWS V14.01,2013-09-06 17:00:00,
2013-09-06 13:30:00,69.8,58.8,30.15,South,180,1.0,6.0,68,0.00,,---,0.00,VWS V14.01,2013-09-06 17:30:00,
2013-09-06 14:00:00,70.0,60.6,30.14,ESE,112,1.0,7.0,72,0.00,,---,0.00,VWS V14.01,2013-09-06 18:00:00,
2013-09-06 14:30:00,70.8,58.5,30.14,ENE,68,0.0,5.0,65,0.00,,---,0.00,VWS V14.01,2013-09-06 18:30:00,
2013-09-06 15:00:00,71.1,62.4,30.14,SE,135,0.0,6.0,74,0.00,,---,0.00,VWS V14.01,2013-09-06 19:00:00,
2013-09-06 15:30:00,69.6,61.7,30.13,ESE,112,0.0,6.0,76,0.00,,---,0.00,VWS V14.01,2013-09-06 19:30:00,
2013-09-06 16:00:00,69.6,61.3,30.11,South,180,0.0,4.0,75,0.00,,---,0.00,VWS V14.01,2013-09-06 20:00:00,
2013-09-06 16:30:00,69.0,62.6,30.11,SSE,158,0.0,6.0,80,0.00,,---,0.00,VWS V14.01,2013-09-06 20:30:00,
2013-09-06 17:00:00,68.2,61.8,30.11,South,180,0.0,5.0,80,0.00,,---,0.00,VWS V14.01,2013-09-06 21:00:00,
2013-09-06 17:30:00,66.0,61.0,30.13,South,180,0.0,4.0,84,0.00,,---,0.00,VWS V14.01,2013-09-06 21:30:00,
2013-09-06 18:00:00,65.6,60.6,30.12,South,180,0.0,1.0,84,0.00,,---,0.00,VWS V14.01,2013-09-06 22:00:00,
2013-09-06 18:30:00,65.7,61.1,30.12,South,180,0.0,1.0,85,0.00,,---,0.00,VWS V14.01,2013-09-06 22:30:00,
2013-09-06 19:00:00,65.0,61.4,30.12,South,180,0.0,1.0,88,0.00,,---,0.00,VWS V14.01,2013-09-06 23:00:00,
2013-09-06 19:30:00,63.0,60.3,30.12,South,180,0.0,0.0,91,0.00,,---,0.00,VWS V14.01,2013-09-06 23:30:00,
2013-09-06 20:00:00,61.4,59.1,30.13,South,180,0.0,0.0,92,0.00,,---,0.00,VWS V14.01,2013-09-07 00:00:00,
2013-09-06 20:30:00,60.1,58.1,30.11,South,180,0.0,0.0,93,0.00,,---,0.00,VWS V14.01,2013-09-07 00:30:00,
2013-09-06 21:00:00,59.1,57.4,30.12,South,180,0.0,0.0,94,0.00,,---,0.00,VWS V14.01,2013-09-07 01:00:00,
2013-09-06 21:30:00,58.5,57.1,30.12,South,180,0.0,0.0,95,0.00,,---,0.00,VWS V14.01,2013-09-07 01:30:00,
2013-09-06 22:00:00,57.8,56.4,30.14,South,180,0.0,0.0,95,0.00,,---,0.00,VWS V14.01,2013-09-07 02:00:00,
2013-09-06 22:30:00,57.3,55.9,30.12,South,180,0.0,0.0,95,0.00,,---,0.00,VWS V14.01,2013-09-07 02:30:00,
2013-09-06 23:00:00,58.0,56.6,30.11,South,180,0.0,0.0,95,0.00,,---,0.00,VWS V14.01,2013-09-07 03:00:00,
2013-09-06 23:30:00,57.9,56.8,30.11,South,180,0.0,0.0,96,0.00,,---,0.00,VWS V14.01,2013-09-07 03:30:00,